Left ArrowRight Arrow

Hourly Observations for March 30, 2020

Temp ( °F °C ) Dew Point ( °F °C ) Humidity (%) Winds ( mph kmh ) Pressure ( in mb ) Visibility ( mi km ) Precip ( " mm )
12:53 am 00:53 Clear 35 1.7 13 -10.6 40 40 SW 9 15 29.87 1012 10 16 0.00 0.00
1:53 am 01:53 Clear 39 3.9 14 -10 36 36 W 5 7 29.85 1011 10 16 0.00 0.00
2:53 am 02:53 Clear 38 3.3 13 -10.6 36 36 WSW 7 11 29.85 1011 10 16 0.00 0.00
3:53 am 03:53 Clear 43 6.1 12 -11.1 28 28 WSW 5 7 29.84 1010 10 16 0.00 0.00
4:53 am 04:53 Clear 37 2.8 13 -10.6 37 37 Calm 29.87 1011 10 16 0.00 0.00
5:53 am 05:53 Clear 34 1.1 15 -9.4 46 46 WSW 7 11 29.90 1012 10 16 0.00 0.00
6:53 am 06:53 Sunny 36 2.2 14 -10 40 40 WNW 7 11 29.92 1013 10 16 0.00 0.00
7:53 am 07:53 Sunny 38 3.3 17 -8.3 43 43 W 6 9 29.95 1014 10 16 0.00 0.00
8:53 am 08:53 Sunny 46 7.8 18 -7.8 32 32 N 5 7 29.93 1014 10 16 0.00 0.00
9:53 am 09:53 Sunny 50 10 13 -10.6 22 22 NNW 5 7 29.94 1014 10 16 0.00 0.00
10:53 am 10:53 Sunny 52 11.1 13 -10.6 21 21 VRB 5 7 29.93 1014 10 16 0.00 0.00
11:53 am 11:53 Sunny 54 12.2 14 -10 20 20 ESE 10 17 29.92 1013 10 16 0.00 0.00
12:53 pm 12:53 Sunny 55 12.8 14 -10 20 20 undefined N/A 29.92 1013 10 16 0.00 0.00
1:53 pm 13:53 Sunny 56 13.3 14 -10 19 19 SSE 8 13 29.88 1012 10 16 0.00 0.00
2:53 pm 14:53 Sunny 59 15 17 -8.3 19 19 SE 10 17 29.86 1011 10 16 0.00 0.00
3:53 pm 15:53 Sunny 58 14.4 15 -9.4 18 18 SE 8 13 29.83 1010 10 16 0.00 0.00
4:53 pm 16:53 Mostly Cloudy 59 15 15 -9.4 18 18 E 8 13 29.83 1010 10 16 0.00 0.00
5:53 pm 17:53 Mostly Sunny 57 13.9 15 -9.4 19 19 NNE 8 13 29.85 1011 10 16 0.00 0.00
6:53 pm 18:53 Mostly Sunny 53 11.7 16 -8.9 23 23 NW 5 7 29.87 1012 10 16 0.00 0.00
7:53 pm 19:53 Clear 50 10 15 -9.4 25 25 WSW 10 17 29.88 1012 10 16 0.00 0.00
8:53 pm 20:53 Clear 42 5.6 18 -7.8 38 38 WSW 10 17 29.89 1012 10 16 0.00 0.00
9:53 pm 21:53 Clear 42 5.6 18 -7.8 38 38 WSW 7 11 29.87 1012 10 16 0.00 0.00
10:53 pm 22:53 Clear 45 7.2 18 -7.8 34 34 WSW 8 13 29.83 1010 10 16 0.00 0.00
11:53 pm 23:53 Clear 44 6.7 18 -7.8 35 35 W 10 17 29.82 1010 10 16 0.00 0.00

Powered by Vaisala Xweather